Location: Newark
(7.0858°N, 171.3717°E)
Time: 01:21:54
(UTC+00:00)

Vanguard 3 - Pass Details

Date: 02 December 2020
Orbit: 508 x 3262 km, 33.3° (Epoch: 19 January)

Event Time Altitude Azimuth Distance (km) Brightness Sun altitude
Exits shadow 15:54:54 66° 221° (SW) 1,922 8.7 -37.1°
Maximum altitude 15:55:11 66° 213° (SSW) 1,940 8.8 -37.1°
Drops below altitude 10° 16:10:08 10° 134° (SE) 5,490 12.1 -33.6°
Sets 16:15:16 0° 131° (SE) 6,822 12.8 -32.5°
